+ View the NASA Portal
+ Center for Near-Earth Object Studies
IMPORTANT:
The SSD Announcement email list is now available. Major changes are coming in the near future, including possible hostname and/or URL changes. To be notified of such changes, subscribe to this email list.
Please visit
this page
for more details.
Don't show this message again
JPL Small-Body Database Browser
Search:
[
help
]
233509 (2007 EB161)
Classification:
Main-belt Asteroid
SPK-ID:
2233509
[
Ephemeris
|
Orbit Diagram
|
Orbital Elements
|
Mission Design
|
Physical Parameters
|
Discovery Circumstances
]
[ show orbit diagram ]
Orbital Elements at Epoch 2458600.5 (2019-Apr-27.0) TDB
Reference:
JPL 13
(heliocentric ecliptic J2000)
Element
Value
Uncertainty (1-sigma)
Units
e
.05071551297726601
7.0643e-08
a
2.175675712411642
2.026e-08
au
q
2.065335202584507
1.6688e-07
au
i
5.995537826037769
5.9242e-06
deg
node
329.0129124114461
5.046e-05
deg
peri
185.3224284519146
8.7774e-05
deg
M
316.5047147636803
7.6688e-05
deg
t
p
2458742.121553751725
(2019-Sep-15.62155375)
0.00025091
TDB
period
1172.167490651342
3.21
1.6373e-05
4.483e-08
d
yr
n
.307123344463305
4.2899e-09
deg/d
Q
2.286016222238777
2.1287e-08
au
Orbit Determination Parameters
# obs. used (total)
280
data-arc span
6959 days (19.05 yr)
first obs. used
2000-01-04
last obs. used
2019-01-23
planetary ephem.
DE431
SB-pert. ephem.
SB431-N16
condition code
0
norm. resid. RMS
.61166
source
ORB
producer
Otto Matic
solution date
2019-Jul-14 09:01:45
Additional Information
Earth MOID
= 1.07576 au
Jupiter MOID
= 2.69827 au
T_jup
= 3.676
[ show covariance matrix ]
[
Ephemeris
|
Orbit Diagram
|
Orbital Elements
|
Mission Design
|
Physical Parameters
|
Discovery Circumstances
]
Physical Parameter Table
Parameter
Symbol
Value
Units
Sigma
Reference
Notes
absolute magnitude
H
16.7
n/a
MPO454688
233509 (2007 EB161)
Discovered 2007-Mar-14 by CSS at Catalina
Reference:
20100228/Numbers.arc
Last Updated:
2010-03-03
Alternate Designations
2007 EB161
= 2005 UT350
[
Ephemeris
|
Orbit Diagram
|
Orbital Elements
|
Mission Design
|
Physical Parameters
|
Discovery Circumstances
]
2019-Dec-11 20:12 UT
(server date/time)
Site Manager:
Ryan S. Park
Webmaster
:
Alan B. Chamberlin